| time (UTC) | temp F | wind direction | speed knots | gust knots | rain 1hr in | rain 24hr in | rain mn in | humidity % | barometer mb |
| 20260506190023 | 93 | 27 | 1.7 | 0.0 | 0.00 | 0.00 | 0.00 | 9 | 1002.1 |
| 20260506184523 | 93 | 27 | 1.7 | 0.0 | 0.00 | 0.00 | 0.00 | 9 | 1002.5 |
| 20260506183018 | 92 | 27 | 2.6 | 0.0 | 0.00 | 0.00 | 0.00 | 10 | 1002.7 |
| 20260506181515 | 92 | 27 | 2.6 | 0.0 | 0.00 | 0.00 | 0.00 | 10 | 1003.0 |
| 20260506180013 | 91 | 27 | 2.6 | 0.0 | 0.00 | 0.00 | 0.00 | 11 | 1003.2 |
| 20260506174508 | 90 | 30 | 1.7 | 0.0 | 0.00 | 0.00 | 0.00 | 11 | 1003.3 |
| 20260506173005 | 90 | 35 | 3.5 | 0.0 | 0.00 | 0.00 | 0.00 | 12 | 1003.7 |
| 20260506171502 | 90 | 36 | 1.7 | 0.0 | 0.00 | 0.00 | 0.00 | 12 | 1003.9 |
| 20260506170100 | 90 | 36 | 0.0 | 0.0 | 0.00 | 0.00 | 0.00 | 12 | 1004.0 |
| 20260506164556 | 89 | 36 | 1.7 | 0.0 | 0.00 | 0.00 | 0.00 | 12 | 1004.1 |
| 20260506163055 | 89 | 36 | 1.7 | 0.0 | 0.00 | 0.00 | 0.00 | 12 | 1004.1 |
| 20260506161553 | 87 | 36 | 2.6 | 0.0 | 0.00 | 0.00 | 0.00 | 13 | 1004.2 |
| 20260506160047 | 86 | 36 | 2.6 | 0.0 | 0.00 | 0.00 | 0.00 | 13 | 1004.3 |
| 20260506154514 | 86 | 36 | 2.6 | 0.0 | 0.00 | 0.00 | 0.00 | 13 | 1004.3 |
| 20260506153012 | 86 | 36 | 1.7 | 0.0 | 0.00 | 0.00 | 0.00 | 13 | 1004.3 |
| 20260506151508 | 85 | 36 | 1.7 | 0.0 | 0.00 | 0.00 | 0.00 | 13 | 1004.4 |
| 20260506150008 | 85 | 36 | 0.0 | 0.0 | 0.00 | 0.00 | 0.00 | 13 | 1004.4 |
| 20260506144516 | 84 | 36 | 0.0 | 0.0 | 0.00 | 0.00 | 0.00 | 14 | 1004.3 |
| 20260506143006 | 83 | 36 | 0.0 | 0.0 | 0.00 | 0.00 | 0.00 | 14 | 1004.5 |
| 20260506141601 | 83 | 36 | 0.9 | 0.0 | 0.00 | 0.00 | 0.00 | 15 | 1004.3 |
| 20260506140119 | 83 | 36 | 0.0 | 0.0 | 0.00 | 0.00 | 0.00 | 13 | 1004.1 |
| 20260506134556 | 83 | 36 | 0.0 | 0.0 | 0.00 | 0.00 | 0.00 | 14 | 1003.9 |
| 20260506133125 | 80 | 36 | 0.0 | 0.0 | 0.00 | 0.00 | 0.00 | 15 | 1003.8 |
| 20260506131551 | 77 | 32 | 0.0 | 0.0 | 0.00 | 0.00 | 0.00 | 18 | 1003.6 |
| 20260506130131 | 74 | 32 | 0.0 | 0.0 | 0.00 | 0.00 | 0.00 | 20 | 1003.5 |
| 20260506124548 | 0 | 0.0 | 0.0 | 0.00 | 0.00 | 0.00 | 1003.3 | ||
| 20260506123045 | 0 | 0.0 | 0.0 | 0.00 | 0.00 | 0.00 | 1003.1 | ||
| 20260506121535 | 0 | 0.0 | 0.0 | 0.00 | 0.00 | 0.00 | 1003.0 | ||
| 20260506120033 | 0 | 0.0 | 0.0 | 0.00 | 0.00 | 0.00 | 1003.0 | ||
| 20260506114525 | 0 | 0.0 | 0.0 | 0.00 | 0.00 | 0.00 | 1002.9 | ||
| 20260506113021 | 0 | 0.0 | 0.0 | 0.00 | 0.00 | 0.00 | 1003.0 | ||
| 20260506111515 | 74 | 32 | 0.0 | 0.0 | 0.00 | 0.00 | 0.00 | 18 | 1002.7 |
| 20260506110044 | 74 | 32 | 0.0 | 0.0 | 0.00 | 0.00 | 0.00 | 17 | 1002.5 |
| 20260506104553 | 74 | 32 | 0.0 | 0.0 | 0.00 | 0.00 | 0.00 | 17 | 1002.4 |
| 20260506103040 | 74 | 32 | 0.0 | 0.0 | 0.00 | 0.00 | 0.00 | 17 | 1002.3 |
| 20260506101537 | 74 | 32 | 0.0 | 0.0 | 0.00 | 0.00 | 0.00 | 15 | 1002.1 |
| 20260506100036 | 75 | 32 | 0.0 | 0.0 | 0.00 | 0.00 | 0.00 | 14 | 1002.0 |
| 20260506094528 | 77 | 32 | 0.0 | 0.0 | 0.00 | 0.00 | 0.00 | 14 | 1001.7 |
| 20260506093056 | 78 | 32 | 1.7 | 0.0 | 0.00 | 0.00 | 0.00 | 13 | 1001.6 |
| 20260506091556 | 79 | 32 | 1.7 | 0.0 | 0.00 | 0.00 | 0.00 | 13 | 1001.6 |
| 20260506090053 | 79 | 33 | 1.7 | 0.0 | 0.00 | 0.00 | 0.00 | 13 | 1001.5 |
| 20260506084554 | 77 | 44 | 0.0 | 0.0 | 0.00 | 0.00 | 0.00 | 14 | 1001.5 |
| 20260506083055 | 77 | 44 | 0.0 | 0.0 | 0.00 | 0.00 | 0.00 | 14 | 1001.5 |
| 20260506081603 | 77 | 44 | 0.0 | 0.0 | 0.00 | 0.00 | 0.00 | 15 | 1001.5 |
| 20260506073010 | 80 | 44 | 0.0 | 0.0 | 0.00 | 0.00 | 0.00 | 14 | 1001.6 |
| 20260506071506 | 82 | 44 | 0.0 | 0.0 | 0.00 | 0.00 | 0.00 | 13 | 1001.6 |
| 20260506061557 | 86 | 44 | 0.9 | 0.0 | 0.00 | 0.00 | 0.00 | 9 | 1001.3 |
| 20260506044551 | 84 | 44 | 0.0 | 0.0 | 0.00 | 0.00 | 0.00 | 14 | 1000.7 |
| 20260506043041 | 84 | 44 | 0.9 | 0.0 | 0.00 | 0.00 | 0.00 | 14 | 1000.4 |
| 20260506041542 | 84 | 44 | 0.9 | 0.0 | 0.00 | 0.00 | 0.00 | 13 | 1000.2 |
| 20260506040036 | 85 | 44 | 0.9 | 0.0 | 0.00 | 0.00 | 0.00 | 13 | 1000.0 |
| 20260506034534 | 86 | 60 | 0.0 | 0.0 | 0.00 | 0.00 | 0.00 | 12 | 999.7 |
| 20260506033028 | 88 | 60 | 0.9 | 0.0 | 0.00 | 0.00 | 0.00 | 11 | 999.5 |
| 20260506031539 | 90 | 60 | 0.0 | 0.0 | 0.00 | 0.00 | 0.00 | 10 | 999.1 |
| 20260506030018 | 89 | 60 | 0.0 | 0.0 | 0.00 | 0.00 | 0.00 | 10 | 998.8 |
| 20260506024524 | 93 | 61 | 0.0 | 0.0 | 0.00 | 0.00 | 0.00 | 8 | 998.6 |
| 20260506023051 | 93 | 60 | 0.0 | 0.0 | 0.00 | 0.00 | 0.00 | 7 | 998.2 |
| 20260506021541 | 92 | 95 | 2.6 | 0.0 | 0.00 | 0.00 | 0.00 | 8 | 997.9 |
| 20260506020036 | 92 | 134 | 0.0 | 0.0 | 0.00 | 0.00 | 0.00 | 10 | 997.6 |
| 20260506014533 | 93 | 134 | 0.9 | 0.0 | 0.00 | 0.00 | 0.00 | 8 | 997.2 |
| 20260506013027 | 94 | 134 | 1.7 | 0.0 | 0.00 | 0.00 | 0.00 | 8 | 997.0 |
| 20260506011524 | 96 | 134 | 0.9 | 0.0 | 0.00 | 0.00 | 0.00 | 7 | 996.9 |
| 20260506010108 | 97 | 134 | 0.9 | 0.0 | 0.00 | 0.00 | 0.00 | 7 | 996.9 |
| 20260506004548 | 98 | 134 | 1.7 | 0.0 | 0.00 | 0.00 | 0.00 | 6 | 996.9 |
| 20260506003042 | 99 | 134 | 0.0 | 0.0 | 0.00 | 0.00 | 0.00 | 6 | 996.8 |
| 20260506001546 | 100 | 134 | 1.7 | 0.0 | 0.00 | 0.00 | 0.00 | 5 | 996.8 |
| 20260506000040 | 100 | 134 | 0.0 | 0.0 | 0.00 | 0.00 | 0.00 | 5 | 996.8 |
| 20260505234539 | 100 | 134 | 2.6 | 0.0 | 0.00 | 0.00 | 0.00 | 5 | 996.8 |
| 20260505233008 | 100 | 109 | 3.5 | 0.0 | 0.00 | 0.00 | 0.00 | 5 | 997.0 |
| 20260505231510 | 100 | 114 | 2.6 | 0.0 | 0.00 | 0.00 | 0.00 | 5 | 997.1 |
| 20260505230003 | 100 | 114 | 1.7 | 0.0 | 0.00 | 0.00 | 0.00 | 5 | 997.3 |
| 20260505224558 | 100 | 114 | 0.9 | 0.0 | 0.00 | 0.00 | 0.00 | 6 | 997.4 |
| 20260505223058 | 99 | 114 | 2.6 | 0.0 | 0.00 | 0.00 | 0.00 | 6 | 997.8 |
| 20260505221555 | 100 | 86 | 0.9 | 0.0 | 0.00 | 0.00 | 0.00 | 6 | 997.9 |
| 20260505220050 | 98 | 86 | 1.7 | 0.0 | 0.00 | 0.00 | 0.00 | 6 | 998.4 |
| 20260505214549 | 98 | 86 | 1.7 | 0.0 | 0.00 | 0.00 | 0.00 | 7 | 998.7 |
| 20260505213043 | 98 | 86 | 1.7 | 0.0 | 0.00 | 0.00 | 0.00 | 7 | 999.0 |
| 20260505211539 | 97 | 86 | 1.7 | 0.0 | 0.00 | 0.00 | 0.00 | 8 | 999.4 |
| 20260505210035 | 96 | 86 | 1.7 | 0.0 | 0.00 | 0.00 | 0.00 | 9 | 999.8 |
| 20260505204531 | 98 | 86 | 0.9 | 0.0 | 0.00 | 0.00 | 0.00 | 9 | 1000.3 |
| 20260505203036 | 96 | 86 | 0.9 | 0.0 | 0.00 | 0.00 | 0.00 | 9 | 1000.5 |
| 20260505201526 | 95 | 86 | 3.5 | 0.0 | 0.00 | 0.00 | 0.00 | 10 | 1000.8 |
| 20260505200024 | 96 | 86 | 0.9 | 0.0 | 0.00 | 0.00 | 0.00 | 11 | 1001.0 |
| 20260505194519 | 97 | 86 | 1.7 | 0.0 | 0.00 | 0.00 | 0.00 | 11 | 1001.4 |
| 20260505193018 | 96 | 86 | 0.9 | 0.0 | 0.00 | 0.00 | 0.00 | 11 | 1001.7 |
| 20260505191514 | 94 | 86 | 0.9 | 0.0 | 0.00 | 0.00 | 0.00 | 12 | 1001.9 |